星链-3090 (STARLINK-3090 )

导读 | 豆包AI

STARLINK-3090是美国SpaceX星链星座中的卫星,于2021年9月14日发射,属于星链星座V1.5版本卫星,携带激光星间链路。星链旨在提供全球宽带互联网服务,STARLINK-3090运行于近地轨道,采用平板设计,搭载氪工质霍尔推进器,具备自主避撞能力,退役后会脱轨坠入大气层烧毁,服务全球联网。

基本信息
目录编号:
49132
目录名称:
STARLINK-3090
国际标识:
2021-082C
轨道中心:
EARTH
卫星名称:
星链-3090
卫星全名:
星链-3090 (STARLINK-3090 )
卫星状态:
在轨 (已飞行1642 天)
发射日期:
2021-09-14 UTC
国别 :
美国 (US)
星等 :
--
轨道信息
数据来源 国际轨道数据 AOE轨道数据
星历时间 2026-03-14T07:28:40+0800
18小时前
查看轨道信息
2026-03-13T05:00:00+0800
1天前
查看轨道信息
半长轴 6950.203km 6950.164km
偏心率 0.0002861 0.0003043
轨道倾角 69.998° 69.996°
近地点辐角 268.927° 271.354°
升交点赤经 283.516° 286.296°
平近点角 91.156° 259.575°
近地点 570.077km 569.912km
远地点 574.055km 574.142km
周期 96.107分钟 96.106分钟
每日圈数 14.983268 14.983394
详细信息
固有亮度:
5
最大亮度:
2.5
卫星平台:
Starlink v1.5
覆盖范围:
全球
运营商:
太空探索技术公司
运营商所在国:
美国
制造商(研发单位):
太空探索技术公司
制造商所在国:
美国
使用方式:
暂无
卫星简介
星链(Starlink)计划是由太空探索技术公司(SpaceX)提出的一个巨型低轨卫星互联网星座项目,计划在2019年至2024年间在太空搭建由约1.2万颗卫星组成的“星链”网络,其中1584颗将部署在地球上空550千米处的近地轨道,并从2020年开始工作。该卫星仍在工作。
2D轨道图
3D轨道图
轨道高度分析图
轨道倾角分析图
轨道综合分析图
查看轨道综合分析图